Location: Fxbg
(38.3018°N, 77.4708°W)
Time: 09:56:25
(UTC-04:00)

ISS - Visible Passes

Search period start: 18 May 2021 00:00
Search period end: 28 May 2021 00:00
Orbit: 417 x 422 km, 51.6° (Epoch: 18 May)

Date Brightness Start Highest point End Pass type
(mag) Time Alt. Az. Time Alt. Az. Time Alt. Az.
18 May -0.2 01:34:21 10° NNW 01:34:27 10° N 01:34:27 10° N visible
18 May -1.1 21:29:39 10° W 21:32:24 23° NNW 21:35:11 10° NNE visible
19 May -0.2 00:47:25 10° N 00:48:08 11° N 00:48:08 11° N visible
19 May -1.8 20:41:44 10° W 20:44:49 34° NNW 20:47:56 10° NE visible
19 May -0.3 22:21:34 10° NNW 22:22:27 11° NNW 22:23:19 10° N visible
20 May -0.6 21:33:00 10° NW 21:34:42 13° NNW 21:36:24 10° NNE visible
21 May -0.3 00:48:23 10° NNW 00:48:49 12° NNW 00:48:49 12° NNW visible
21 May -0.8 20:44:42 10° WNW 20:46:59 17° NNW 20:49:18 10° NNE visible
22 May -0.6 00:01:17 10° NNW 00:02:47 13° NNE 00:02:47 13° NNE visible
22 May -0.6 23:14:21 10° N 23:15:15 11° NNE 23:16:10 10° NNE visible
24 May -0.8 00:02:28 10° NNW 00:03:43 17° N 00:03:43 17° N visible
24 May -1.2 23:15:17 10° NNW 23:17:36 17° NNE 23:17:45 17° NNE visible
25 May -0.9 22:28:10 10° NNW 22:29:53 13° NNE 22:31:36 10° NE visible
26 May -0.8 00:03:57 10° NW 00:04:46 16° NW 00:04:46 16° NW visible
26 May -0.8 21:41:13 10° N 21:42:07 11° NNE 21:43:01 10° NNE visible
26 May -1.9 23:16:36 10° NW 23:18:51 29° N 23:18:51 29° N visible
27 May -1.9 22:29:19 10° NNW 22:32:07 23° NNE 22:32:58 21° NE visible
